Location: Cluny
(50.9333°N, 112.8167°W)
Time: 13:47:14
(UTC-06:00)

Amateur Radio Satellites - All Passes

Search period start: 23 August 2014 13:17
Search period end: 24 August 2014 13:17
Location: Cluny, 50.9333°N, 112.8167°W

Satellite Date Start Highest point End Downlink Frequencies (MHz)
Time Altitude Azimuth
AO-7 23 Aug 13:25:36 13:29:30 14° 27° (NNE) 13:33:23 29.400 - 29.500 MHz
RS-15 23 Aug 13:36:40 13:46:58 43° 344° (NNW) 13:57:22 29.354 - 29.394 USB, Beacon 29.352 USB
TMSAT-1 23 Aug 13:40:34 13:43:11 14° 50° (NE) 13:45:47 436.925 FM
SO-50 23 Aug 13:43:07 13:47:36 41° 37° (NE) 13:52:10 436.795 FM
AO-Echo 23 Aug 13:49:34 13:54:14 37° 65° (ENE) 13:58:47 ?
Oscar 19 23 Aug 13:56:44 14:01:53 78° 72° (ENE) 14:07:06 437.125 CW, 437.150 USB
ITAMSAT 1 23 Aug 14:10:57 14:15:58 53° 68° (ENE) 14:21:00 435.822 SSB
ISS 23 Aug 14:13:13 14:15:15 15° 140° (SE) 14:17:18 145.800 FM
Gurwin Techsat 1B 23 Aug 14:20:48 14:25:29 33° 62° (ENE) 14:30:11 435.225 FM
Uribyol 2 23 Aug 14:22:54 14:28:01 68° 71° (ENE) 14:33:10 436.500 FM
Oscar 16 23 Aug 14:30:23 14:35:27 56° 259° (W) 14:40:34 437.025 USB, Beacon 2401.1428
HO-68 23 Aug 14:30:26 14:30:43 10° 330° (NNW) 14:31:01 435.675 MHz FM
AO-27 23 Aug 14:37:37 14:42:49 85° 73° (ENE) 14:48:02 436.795 MHz FM
JAS-1B 23 Aug 14:38:12 14:48:06 79° 70° (ENE) 14:57:07 435.800 - 435.900 CW/SSB
UOSAT-12 23 Aug 14:47:27 14:51:25 25° 27° (NNE) 14:55:22 437.025 FM, 437.400 FM
AO-7 23 Aug 15:12:36 15:20:01 38° 52° (NE) 15:27:26 29.400 - 29.500 MHz
TMSAT-1 23 Aug 15:16:56 15:22:10 66° 70° (ENE) 15:27:26 436.925 FM
SO-50 23 Aug 15:23:44 15:28:16 44° 238° (WSW) 15:32:51 436.795 FM
AO-Echo 23 Aug 15:28:18 15:33:01 37° 263° (W) 15:37:38 ?
MaSat-1 23 Aug 15:31:46 15:36:05 32° 109° (ESE) 15:40:40 437.345 MHz
Oscar 19 23 Aug 15:38:26 15:41:52 18° 272° (W) 15:45:20 437.125 CW, 437.150 USB
ISS 23 Aug 15:48:13 15:51:29 58° 159° (SSE) 15:54:46 145.800 FM
ITAMSAT 1 23 Aug 15:51:25 15:55:46 27° 267° (W) 16:00:07 435.822 SSB
RS-15 23 Aug 15:52:01 16:02:22 44° 18° (NNE) 16:12:57 29.354 - 29.394 USB, Beacon 29.352 USB
Gurwin Techsat 1B 23 Aug 16:00:15 16:05:20 46° 262° (W) 16:10:27 435.225 FM
Uribyol 2 23 Aug 16:04:14 16:08:01 20° 270° (W) 16:11:49 436.500 FM
Uosat F 23 Aug 16:11:13 16:16:01 47° 67° (ENE) 16:20:49 435.120 FM
AO-27 23 Aug 16:19:51 16:23:02 16° 272° (W) 16:26:13 436.795 MHz FM
UOSAT-12 23 Aug 16:27:26 16:32:13 87° 49° (NE) 16:36:56 437.025 FM, 437.400 FM
JAS-1B 23 Aug 16:30:35 16:39:14 34° 270° (W) 16:47:22 435.800 - 435.900 CW/SSB
JAS-2 23 Aug 16:56:17 17:00:42 21° 56° (NE) 17:04:48 435.800 - 435.900 CW/SSB, 435.910 FM
TMSAT-1 23 Aug 16:58:32 17:02:35 22° 270° (W) 17:06:38 436.925 FM
OPAL 23 Aug 17:00:13 17:03:56 19° 92° (E) 17:07:38 ?
AO-7 23 Aug 17:04:02 17:12:22 70° 254° (WSW) 17:20:43 29.400 - 29.500 MHz
MaSat-1 23 Aug 17:08:11 17:13:02 50° 310° (NW) 17:18:08 437.345 MHz
ISS 23 Aug 17:24:53 17:28:13 76° 359° (N) 17:31:33 145.800 FM
Hamsat 23 Aug 17:41:59 17:45:48 32° 66° (ENE) 17:49:40 145.90 MHz
Uosat F 23 Aug 17:50:41 17:55:00 29° 266° (W) 17:59:21 435.120 FM
RS-15 23 Aug 18:05:17 18:16:21 83° 47° (NE) 18:27:48 29.354 - 29.394 USB, Beacon 29.352 USB
UOSAT-12 23 Aug 18:08:42 18:11:46 17° 248° (WSW) 18:14:48 437.025 FM, 437.400 FM
Sapphire 23 Aug 18:13:49 18:15:00 11° 101° (E) 18:16:12 437.095 MHz 1200 baud AX-25 AFSK
OPAL 23 Aug 18:38:09 18:43:22 75° 291° (WNW) 18:48:34 ?
JAS-2 23 Aug 18:38:49 18:45:17 86° 254° (WSW) 18:51:01 435.800 - 435.900 CW/SSB, 435.910 FM
PCSat 23 Aug 18:41:01 18:44:53 20° 107° (ESE) 18:48:45 145.825 MHz
MaSat-1 23 Aug 18:48:07 18:51:22 17° 332° (NNW) 18:54:38 437.345 MHz
AO-7 23 Aug 19:01:38 19:06:44 17° 276° (W) 19:11:51 29.400 - 29.500 MHz
ISS 23 Aug 19:01:40 19:04:59 70° 198° (SSW) 19:08:18 145.800 FM
Oscar 10/S400 23 Aug 19:11:03 19:26:38 27° 143° (SE) 19:57:17 145.825 - 145.975 CW/USB, Beacon 145.810 USB
SO-67 23 Aug 19:14:39 19:17:55 40° 70° (ENE) 19:21:13 435.3500 MHz FM
Hamsat 23 Aug 19:17:51 19:21:45 33° 265° (W) 19:25:41 145.90 MHz
HO-68 23 Aug 19:38:57 19:44:27 25° 49° (NE) 19:49:58 435.675 MHz FM
Sapphire 23 Aug 19:52:01 19:57:20 61° 121° (ESE) 20:02:41 437.095 MHz 1200 baud AX-25 AFSK
STRAND 1 23 Aug 20:09:08 20:14:05 49° 100° (E) 20:19:01 ?
RS-15 23 Aug 20:18:11 20:27:43 36° 252° (WSW) 20:37:33 29.354 - 29.394 USB, Beacon 29.352 USB
OPAL 23 Aug 20:18:22 20:21:27 16° 311° (NW) 20:24:33 ?
PCSat 23 Aug 20:22:15 20:27:41 82° 307° (NW) 20:33:09 145.825 MHz
JAS-2 23 Aug 20:27:12 20:31:05 17° 272° (W) 20:34:45 435.800 - 435.900 CW/SSB, 435.910 FM
UKube-1 23 Aug 20:30:31 20:33:18 17° 57° (ENE) 20:36:04 145.840 MHz, 145.915 MHz
ISS 23 Aug 20:38:49 20:41:20 20° 217° (SW) 20:43:50 145.800 FM
Oscar 11 23 Aug 20:45:22 20:47:41 14° 56° (NE) 20:50:00 145.825 FM, Beacon 2401.500 USB
SO-67 23 Aug 20:48:48 20:51:11 17° 269° (W) 20:53:34 435.3500 MHz FM
HO-68 23 Aug 21:24:10 21:31:20 87° 70° (ENE) 21:38:32 435.675 MHz FM
Sapphire 23 Aug 21:36:11 21:41:06 34° 322° (NW) 21:46:04 437.095 MHz 1200 baud AX-25 AFSK
STRAND 1 23 Aug 21:48:43 21:53:06 30° 299° (WNW) 21:57:27 ?
UKube-1 23 Aug 22:04:39 22:09:00 75° 256° (WSW) 22:13:23 145.840 MHz, 145.915 MHz
PCSat 23 Aug 22:07:28 22:11:55 25° 330° (NNW) 22:16:22 145.825 MHz
MaSat-1 23 Aug 22:07:51 22:10:06 13° 20° (NNE) 22:12:17 437.345 MHz
Oscar 11 23 Aug 22:18:55 22:23:15 89° 252° (WSW) 22:27:38 145.825 FM, Beacon 2401.500 USB
FUNcube-1 23 Aug 22:23:50 22:27:47 43° 69° (ENE) 22:31:48 145.950 - 145.970 MHz USB
AO-40 23 Aug 23:03:19 04:07:15 30° 182° (S) 10:39:10 Beacon 2401.320
HO-68 23 Aug 23:14:35 23:19:57 22° 271° (W) 23:25:21 435.675 MHz FM
Sapphire 23 Aug 23:22:52 23:26:11 16° 347° (NNW) 23:29:30 437.095 MHz 1200 baud AX-25 AFSK
MaSat-1 23 Aug 23:44:11 23:48:47 34° 44° (NE) 23:52:58 437.345 MHz
PCSat 23 Aug 23:54:18 23:57:18 15° 356° (N) 00:00:17 145.825 MHz
Oscar 11 23 Aug 23:58:34 00:00:07 12° 274° (W) 00:01:42 145.825 FM, Beacon 2401.500 USB
FUNcube-1 24 Aug 00:01:06 00:04:25 23° 268° (W) 00:07:46 145.950 - 145.970 MHz USB
KITSAT 1 24 Aug 00:48:29 00:54:46 26° 105° (ESE) 01:01:03 435.175 FM
Sapphire 24 Aug 01:08:28 01:11:51 16° 14° (NNE) 01:15:13 437.095 MHz 1200 baud AX-25 AFSK
MaSat-1 24 Aug 01:21:20 01:26:05 48° 246° (WSW) 01:30:19 437.345 MHz
Saudisat 1A 24 Aug 01:29:38 01:33:46 41° 122° (ESE) 01:37:56 436.775 MHz
PCSat 24 Aug 01:38:56 01:42:52 20° 22° (NNE) 01:46:48 145.825 MHz
Oscar 19 24 Aug 02:04:04 02:07:48 19° 89° (E) 02:11:29 437.125 CW, 437.150 USB
ITAMSAT 1 24 Aug 02:20:35 02:22:41 12° 85° (E) 02:24:46 435.822 SSB
JAS-1B 24 Aug 02:21:49 02:26:04 16° 78° (ENE) 02:29:56 435.800 - 435.900 CW/SSB
Uribyol 2 24 Aug 02:31:37 02:34:52 17° 88° (E) 02:38:07 436.500 FM
Oscar 16 24 Aug 02:36:57 02:41:45 36° 96° (E) 02:46:31 437.025 USB, Beacon 2401.1428
KITSAT 1 24 Aug 02:41:05 02:49:12 89° 127° (SE) 02:57:21 435.175 FM
OPAL 24 Aug 02:44:29 02:46:38 13° 46° (NE) 02:48:48 ?
AO-27 24 Aug 02:46:16 02:50:09 21° 90° (E) 02:54:01 436.795 MHz FM
Sapphire 24 Aug 02:51:53 02:56:54 36° 39° (NE) 03:01:53 437.095 MHz 1200 baud AX-25 AFSK
Saudisat 1A 24 Aug 03:09:14 03:13:24 39° 323° (NW) 03:17:36 436.775 MHz
PCSat 24 Aug 03:22:09 03:27:30 54° 46° (NE) 03:32:49 145.825 MHz
TMSAT-1 24 Aug 03:28:35 03:32:09 18° 88° (E) 03:35:41 436.925 FM
AO-Echo 24 Aug 03:29:59 03:34:36 49° 99° (E) 03:39:09 ?
Oscar 19 24 Aug 03:42:29 03:47:42 73° 288° (WNW) 03:52:52 437.125 CW, 437.150 USB
ITAMSAT 1 24 Aug 03:57:53 04:03:05 76° 104° (ESE) 04:08:16 435.822 SSB
Uribyol 2 24 Aug 04:09:49 04:15:02 84° 287° (WNW) 04:20:14 436.500 FM
JAS-1B 24 Aug 04:10:40 04:18:26 76° 104° (ESE) 04:24:51 435.800 - 435.900 CW/SSB
Gurwin Techsat 1B 24 Aug 04:10:58 04:16:08 50° 99° (E) 04:21:17 435.225 FM
Oscar 16 24 Aug 04:16:20 04:21:09 39° 295° (WNW) 04:25:58 437.025 USB, Beacon 2401.1428
OPAL 24 Aug 04:19:35 04:24:31 58° 66° (ENE) 04:29:33 ?
AO-27 24 Aug 04:25:00 04:30:09 67° 290° (WNW) 04:35:17 436.795 MHz FM
Sapphire 24 Aug 04:35:17 04:40:37 57° 240° (WSW) 04:45:55 437.095 MHz 1200 baud AX-25 AFSK
KITSAT 1 24 Aug 04:38:08 04:45:35 38° 333° (NNW) 04:53:03 435.175 FM
Saudisat 1A 24 Aug 04:51:19 04:54:08 16° 346° (NNW) 04:56:58 436.775 MHz
AO-7 24 Aug 05:00:11 05:07:20 31° 93° (E) 05:14:24 29.400 - 29.500 MHz
PCSat 24 Aug 05:05:55 05:10:44 33° 247° (WSW) 05:15:32 145.825 MHz
TMSAT-1 24 Aug 05:07:24 05:12:43 80° 287° (WNW) 05:18:00 436.925 FM
AO-Echo 24 Aug 05:09:15 05:13:10 26° 299° (WNW) 05:17:02 ?
Oscar 19 24 Aug 05:23:22 05:26:12 15° 309° (NW) 05:29:02 437.125 CW, 437.150 USB
ITAMSAT 1 24 Aug 05:38:17 05:42:04 21° 304° (NW) 05:45:51 435.822 SSB
SO-50 24 Aug 05:44:36 05:47:40 18° 113° (ESE) 05:50:47 436.795 FM
Uribyol 2 24 Aug 05:50:35 05:53:48 17° 307° (NW) 05:57:00 436.500 FM
Gurwin Techsat 1B 24 Aug 05:51:19 05:55:55 31° 299° (WNW) 06:00:30 435.225 FM
Uosat F 24 Aug 05:52:14 05:57:13 60° 102° (ESE) 06:02:09 435.120 FM
STRAND 1 24 Aug 05:52:47 05:56:35 22° 57° (ENE) 06:00:22 ?
OPAL 24 Aug 05:59:44 06:03:47 24° 266° (W) 06:07:53 ?
JAS-1B 24 Aug 06:01:48 06:08:15 29° 309° (NW) 06:13:52 435.800 - 435.900 CW/SSB
AO-27 24 Aug 06:06:14 06:08:46 14° 310° (NW) 06:11:19 436.795 MHz FM
Saudisat 1A 24 Aug 06:32:47 06:35:24 15° 10° (N) 06:38:01 436.775 MHz
KITSAT 1 24 Aug 06:36:42 06:43:26 28° 2° (N) 06:50:09 435.175 FM
TMSAT-1 24 Aug 06:48:40 06:51:52 17° 307° (NW) 06:55:04 436.925 FM
AO-7 24 Aug 06:52:35 07:00:53 76° 295° (WNW) 07:09:08 29.400 - 29.500 MHz
Hamsat 24 Aug 06:58:13 07:02:10 32° 95° (E) 07:06:05 145.90 MHz
SO-50 24 Aug 07:23:10 07:27:41 79° 313° (NW) 07:32:20 436.795 FM
JAS-2 24 Aug 07:27:26 07:32:29 50° 100° (E) 07:37:36 435.800 - 435.900 CW/SSB, 435.910 FM
STRAND 1 24 Aug 07:30:12 07:35:18 72° 256° (WSW) 07:40:25 ?
Uosat F 24 Aug 07:31:41 07:35:39 24° 301° (WNW) 07:39:37 435.120 FM
SO-67 24 Aug 08:06:40 08:09:34 24° 94° (E) 08:12:27 435.3500 MHz FM
Saudisat 1A 24 Aug 08:12:17 08:16:17 32° 34° (NE) 08:20:16 436.775 MHz
UOSAT-12 24 Aug 08:22:59 08:27:24 45° 123° (ESE) 08:31:54 437.025 FM, 437.400 FM
KITSAT 1 24 Aug 08:33:35 08:41:10 41° 30° (NNE) 08:48:43 435.175 FM
Hamsat 24 Aug 08:34:12 08:38:08 33° 294° (WNW) 08:42:03 145.90 MHz
RS-15 24 Aug 08:37:16 08:45:59 28° 104° (ESE) 08:54:35 29.354 - 29.394 USB, Beacon 29.352 USB
AO-7 24 Aug 08:46:11 08:52:30 25° 318° (NW) 08:58:48 29.400 - 29.500 MHz
HO-68 24 Aug 08:49:09 08:51:39 12° 81° (E) 08:54:08 435.675 MHz FM
SO-50 24 Aug 09:05:16 09:08:58 23° 335° (NNW) 09:12:43 436.795 FM
JAS-2 24 Aug 09:13:04 09:17:26 28° 300° (WNW) 09:21:48 435.800 - 435.900 CW/SSB, 435.910 FM
STRAND 1 24 Aug 09:13:49 09:15:26 11° 276° (W) 09:17:03 ?
SO-67 24 Aug 09:39:37 09:42:38 28° 292° (WNW) 09:45:38 435.3500 MHz FM
UKube-1 24 Aug 09:49:29 09:51:35 13° 88° (E) 09:53:41 145.840 MHz, 145.915 MHz
Saudisat 1A 24 Aug 09:51:47 09:56:07 55° 235° (SW) 10:00:25 436.775 MHz
UOSAT-12 24 Aug 10:03:15 10:07:39 39° 323° (NW) 10:12:08 437.025 FM, 437.400 FM
Oscar 11 24 Aug 10:03:20 10:05:11 12° 86° (E) 10:07:02 145.825 FM, Beacon 2401.500 USB
KITSAT 1 24 Aug 10:29:14 10:37:20 80° 235° (SW) 10:45:24 435.175 FM
HO-68 24 Aug 10:33:54 10:40:58 58° 102° (ESE) 10:47:59 435.675 MHz FM
AO-7 24 Aug 10:40:50 10:42:24 11° 344° (NNW) 10:43:58 29.400 - 29.500 MHz
RS-15 24 Aug 10:45:48 10:56:50 86° 128° (SE) 11:07:50 29.354 - 29.394 USB, Beacon 29.352 USB
SO-50 24 Aug 10:48:21 10:51:08 15° 0° (N) 10:53:56 436.795 FM
UKube-1 24 Aug 11:24:01 11:28:24 82° 287° (WNW) 11:32:44 145.840 MHz, 145.915 MHz
JAS-1B 24 Aug 11:26:18 11:29:24 12° 30° (NNE) 11:32:22 435.800 - 435.900 CW/SSB
Oscar 11 24 Aug 11:37:37 11:42:01 87° 286° (WNW) 11:46:24 145.825 FM, Beacon 2401.500 USB
FUNcube-1 24 Aug 11:43:43 11:48:01 48° 99° (E) 11:52:23 145.950 - 145.970 MHz USB
UOSAT-12 24 Aug 11:45:50 11:49:02 18° 347° (NNW) 11:52:15 437.025 FM, 437.400 FM
HO-68 24 Aug 12:21:59 12:28:27 38° 303° (WNW) 12:34:54 435.675 MHz FM
Oscar 16 24 Aug 12:22:12 12:25:24 17° 53° (NE) 12:28:37 437.025 USB, Beacon 2401.1428
KITSAT 1 24 Aug 12:25:51 12:31:33 22° 257° (WSW) 12:37:15 435.175 FM
SO-50 24 Aug 12:29:31 12:33:18 23° 24° (NNE) 12:37:08 436.795 FM
AO-27 24 Aug 12:34:18 12:35:40 11° 47° (NE) 12:37:02 436.795 MHz FM
UKube-1 24 Aug 13:01:54 13:03:55 13° 306° (NW) 13:05:56 145.840 MHz, 145.915 MHz
